Regional Weather Roundup
Issued by NWS

Home | Current Version | Previous Version | Text Only | Print | Product List | Glossary Off
Versions: 1 2 3 4 5 6 7 8 9 10 11 12 13 14 15 16 17 18 19 20 21 22 23 24 25 26 27 28 29 30 31 32 33 34 35 36 37 38 39 40 41 42 43 44 45 46 47 48 49 50

000
ASUS43 KMKX 272200
RWRWI

WISCONSIN REGIONAL WEATHER ROUNDUP
NATIONAL WEATHER SERVICE MILWAUKEE/SULLIVAN WI
500 PM CDT MON MAR 27 2017

NOTE: "FAIR" INDICATES FEW OR NO CLOUDS BELOW 12,000 FEET WITH NO
SIGNIFICANT WEATHER AND/OR OBSTRUCTIONS TO VISIBILITY.

WIZ001-002-006>008-014>016-023>028-272300-
NORTHWEST WISCONSIN

CITY           SKY/WX    TMP DP  RH WIND       PRES   REMARKS
SUPERIOR ARPT  MOSUNNY   49  34  56 E6        29.98S
ASHLAND        CLOUDY    45  35  68 N8        29.98F
HAYWARD        SUNNY     56  31  38 N7        29.94S
SIREN          SUNNY     58  33  38 NE7       29.94S
CUMBERLAND     CLOUDY    54  32  43 N7        29.94S
RICE LAKE      CLOUDY    54  35  49 CALM      29.95S
CHETEK         CLOUDY    49  37  62 SE8       29.95S
LADYSMITH      CLOUDY    51  33  49 E6        29.96S
EAU CLAIRE     NOT AVBL
MENOMONIE      CLOUDY    48  38  66 E3        29.96S
NEW RICHMOND   CLOUDY    56  33  41 S6        29.95S
OSCEOLA        MOSUNNY   56  35  44 NE8       29.97S
$$

WIZ003>005-009-010-017-018-272300-
NORTH CENTRAL WISCONSIN

CITY           SKY/WX    TMP DP  RH WIND       PRES   REMARKS
MANITOWISH WTR CLOUDY    47  32  55 N3        29.94S
ARBOR VITAE    CLOUDY    45  34  66 N6        29.94S
WOODRUFF       CLOUDY    45  34  66 N6        29.94S
RHINELANDER    CLOUDY    46  35  65 NW6       29.94F
EAGLE RIVER    CLOUDY    42  32  66 N7        29.95S
LAND O LAKES   CLOUDY    43  34  71 N5        29.97S
PHILLIPS       CLOUDY    48  32  54 N6        29.94F
TOMAHAWK       CLOUDY    44  34  69 N3        29.95S
MEDFORD        CLOUDY    41  37  85 CALM      29.94S
MERRILL        CLOUDY    42  38  88 N5        29.96S
$$

WIZ029-030-035-036-043>047-272300-
CENTRAL WISCONSIN

CITY           SKY/WX    TMP DP  RH WIND       PRES   REMARKS
WAUSAU         CLOUDY    43  37  79 N5        29.94R
MOSINEE        CLOUDY    43  39  87 N5        29.96S
MARSHFIELD     CLOUDY    43  36  76 N6        29.93F
STEVENS POINT  CLOUDY    41  38  89 N3        29.96R
WAUPACA        CLOUDY    45  40  83 N5        29.96R
WAUTOMA        CLOUDY    46  42  86 N6        29.95R
WISC RAPIDS    CLOUDY    43  40  89 N7        29.96S
CAMP DOUGLAS   NOT AVBL
$$

WIZ011>013-019>022-031-037>040-048>050-272300-
NORTHEAST WISCONSIN

CITY           SKY/WX    TMP DP  RH WIND       PRES   REMARKS
ANTIGO         CLOUDY    41  38  87 N3        29.95R
SHAWANO        RAIN      44  38  81 CALM      29.96S
OCONTO         CLOUDY    38  33  81 CALM      29.97R
STURGEON BAY   CLOUDY    39  35  86 N7        29.98R WCI  34
GREEN BAY      CLOUDY    41  37  86 NE6       29.97R
MANITOWOC      CLOUDY    39  36  87 SE5       29.96S
APPLETON       CLOUDY    43  41  93 N7        29.94R
CLINTONVILLE   CLOUDY    43  37  81 N5        29.96R
OSHKOSH        CLOUDY    44  38  79 NE7       29.94S
$$

WIZ032>034-041-042-053>061-272300-
SOUTHWEST WISCONSIN

CITY           SKY/WX    TMP DP  RH WIND       PRES   REMARKS
LA CROSSE      CLOUDY    49  41  74 NW8       29.94F
SPARTA         CLOUDY    46  41  84 N6        29.96R
VIROQUA        CLOUDY    46  44  93 NW3       29.93S
BOSCOBEL       CLOUDY    52  43  71 CALM      29.93F
PRAIRIE DU CHI CLOUDY    47  45  93 CALM      29.94S FOG
PLATTEVILLE    CLOUDY    48  46  92 N6        29.92F
$$

WIZ056-057-062-063-064-067-068-272300-
SOUTH CENTRAL WISCONSIN

CITY           SKY/WX    TMP DP  RH WIND       PRES   REMARKS
REEDSBURG      CLOUDY    47  45  90 CALM      29.93S
BARABOO/DELLS  CLOUDY    47  43  86 N5        29.93S
LONE ROCK      CLOUDY    48  43  81 CALM      29.93F HAZE
MINERAL POINT  CLOUDY    48  46  93 N3        29.92F
MADISON        CLOUDY    48  42  80 N6        29.92S
MIDDLETON      CLOUDY    49  44  82 N3        29.93S
WATERTOWN      CLOUDY    48  43  85 CALM      29.92S
MONROE         CLOUDY    48  43  81 NE3       29.92R
JANESVILLE     CLOUDY    52  45  76 NE8       29.91S
$$

WIZ051-052-058>065-066-070>072-272300-
SOUTHEAST WISCONSIN

CITY           SKY/WX    TMP DP  RH WIND       PRES   REMARKS
MILWAUKEE      CLOUDY    44  37  76 E6        29.93F
WAUKESHA       CLOUDY    46  41  81 CALM      29.93F
MILWAUKEE/TIMM CLOUDY    45  37  76 E6        29.94S
RACINE         CLOUDY    43  37  79 NE5       29.95S
KENOSHA        CLOUDY    44  39  82 E6        29.93S
FOND DU LAC    CLOUDY    45  38  76 N10       29.94S
SHEBOYGAN      CLOUDY    39  37  92 E8        29.95R WCI  33
WEST BEND      CLOUDY    45  43  93 E5        29.93S
JUNEAU         CLOUDY    46  42  86 CALM      29.94S
$$

LSZ147-162-272300-
LAKE SUPERIOR

STATION/POSITION TIME  TEMP    WIND        PRES    WAVE
                       AIR SEA DIR/SP/G            HT/PER
                 (UTC) (F)     (DEG/KT/KT) (MB)    (FT/S)
DEVILS ISLAND    2100   37     210/  5/  5 1016.2F
PORT WING        2130   42      CALM  /  1 1015.6S
SAXON HARBOR     2140   36     340/  2/  3 1015.6S
$$

LMZ867-665-643>646-272300-
LAKE MICHIGAN

STATION/POSITION TIME  TEMP    WIND        PRES    WAVE
                       AIR SEA DIR/SP/G            HT/PER
                 (UTC) (F)     (DEG/KT/KT) (MB)    (FT/S)
CHAMBERS ISLAND  2140   38        CALM     1014.6S
NORTHPORT PIER   2140   38        CALM     1014.6S
KEWAUNEE LAKESHO 2130   36      CALM  /  2 1014.4R
SHEBOYGAN LAKESH 2100   36      50/  6/  6 1014.6R
PORT WASHINGTON  2140   40      40/  2/  3 1014.9S
MILWAUKEE LAKESH 2130   38     100/  5/  5   N/A
KENOSHA   LAKESH 2100   40        CALM     1013.9
$$

TC  - TEMPERATURE IN CELSIUS
VSB - VISIBILITY IN STATUTE MILES
WCI - WIND CHILL INDEX
HX  - HEAT INDEX




USA.gov is the U.S. government's official web portal to all federal, state and local government web resources and services.